[[{"header":{"parameterUnit":"m.s-1","parameterCategory":1,"la1":30.2991,"la2":30.254,"lo1":-89.0895,"lo2":-89.0444,"dy":0.0017,"dx":0.0017,"nx":28,"ny":28,"refTime":"2025-09-01T21:00:00:Z","depth":0,"parameterNumber":2,"parameterNumberName":"U-component_of_WINDS"},"data":[0,0,0,0,0,0,0,0,0,0,0,0,0,0,0,0,0,0,0,0,0,0,0,0,0,0,0,0,0,0,0,0,0,0,0,0,0,0,0,0,0,0,0,0,0,0,0,0,0,0,0,0,0,0,0,0,0,0,-4.5437,-4.5437,0,-4.5429,-4.5429,-4.5429,-4.533,-4.5327,-4.5325,-4.5322,-4.5315,-4.5317,-4.5319,0,0,0,0,0,0,0,0,0,0,0,0,0,-4.5366,-4.5367,-4.5437,-4.5437,-4.5437,-4.5429,-4.5429,-4.5429,-4.533,-4.5327,-4.5324,-4.5321,-4.5314,-4.5317,-4.5319,0,0,0,0,0,0,0,0,0,0,0,0,0,-4.5381,-4.5368,-4.5437,-4.5386,-4.5382,-4.5429,-4.5429,-4.5429,-4.5331,-4.5327,-4.5323,-4.532,-4.5313,-4.5316,-4.532,-4.5415,0,0,-4.5329,-4.5331,0,0,0,0,0,0,0,0,-4.538,-4.5384,-4.5394,-4.539,-4.5385,-4.5377,-4.5401,-4.5424,-4.5332,-4.535,-4.5322,-4.5318,-4.5338,-4.5339,-4.5346,-4.5415,-4.5414,-4.533,-4.5332,-4.5333,-4.5334,0,0,0,0,0,0,0,-4.5379,-4.5384,-4.5434,-4.5394,-4.5389,-4.5364,-4.5362,-4.5405,-4.5366,-4.5348,-4.5341,-4.5342,-4.5335,-4.5343,-4.5345,-4.5414,-4.533,-4.5332,-4.5334,-4.5336,-4.556,-4.5564,0,0,0,0,0,0,-4.5385,-4.5383,-4.5434,-4.5434,-4.5373,-4.5369,-4.5366,-4.5383,-4.5365,-4.5358,-4.5345,-4.5337,-4.534,-4.5342,-4.5345,-4.5455,-4.5333,-4.5336,-4.5338,-4.5556,-4.5561,-4.5565,0,0,0,0,0,0,-4.5384,-4.5391,-4.5434,-4.5407,-4.541,-4.5374,-4.5393,-4.5385,-4.5393,-4.5362,-4.5355,-4.536,-4.5337,-4.534,-4.5398,-4.5453,-4.5337,-4.534,-4.5551,-4.5558,-4.5563,-4.5676,0,0,0,0,0,0,-4.5383,-4.5391,-4.5427,-4.5408,-4.5412,-4.5488,-4.5397,-4.5387,-4.5399,-4.5388,-4.5375,-4.5369,-4.5334,-4.5394,-4.5401,-4.5455,-4.5343,-4.5546,-4.5554,-4.5561,-4.5667,-4.5685,-4.57,0,0,0,0,0,-4.538,-4.5459,-4.5429,-4.5436,-4.5456,-4.5492,-4.5494,-4.5452,-4.5404,-4.5439,-4.5419,-4.5369,-4.5446,-4.5401,-4.5408,-4.5464,-4.5543,-4.5552,-4.5561,-4.566,-4.5682,-4.57,0,0,0,0,0,0,-4.5485,-4.5455,-4.5422,-4.5497,-4.5498,-4.5475,-4.5518,-4.5477,-4.5491,-4.5481,-4.5429,-4.5426,-4.5493,-4.5484,-4.5434,-4.5555,-4.5486,-4.5497,-4.5558,-4.5579,-4.5595,-4.5595,-4.5346,0,0,0,0,0,-4.5517,-4.5548,-4.552,-4.5589,-4.5591,-4.5555,-4.5569,-4.5537,-4.5535,-4.5535,-4.5519,-4.552,-4.5544,-4.5561,-4.5582,-4.5666,-4.5661,-4.5708,-4.5725,-4.5739,-4.5748,-4.5792,-4.5812,-4.5595,-4.5595,-4.5595,0,0,-4.5582,-4.557,-4.5593,-4.561,-4.5606,-4.564,-4.5556,-4.5595,-4.5619,-4.5541,-4.5594,-4.5584,-4.5581,-4.5652,-4.5683,-4.5647,-4.5808,-4.575,-4.5761,-4.5764,-4.5804,-4.5824,-4.5842,-4.5601,-4.56,-4.5599,0,0,-4.5719,-4.5713,-4.5769,-4.5768,-4.5764,-4.574,-4.5754,-4.5737,-4.5727,-4.578,-4.5722,-4.5751,-4.5793,-4.5794,-4.5799,-4.5938,-4.5892,-4.5946,-4.6032,-4.6076,-4.6093,-4.6108,-4.6156,-4.6175,-4.5956,-4.5956,-4.5956,0,-4.5801,-4.5849,-4.5804,-4.5846,-4.5855,-4.5787,-4.5843,-4.5844,-4.5848,-4.5856,-4.5816,-4.5868,-4.5861,-4.5932,-4.5966,-4.5973,-4.5987,-4.5946,-4.6094,-4.6109,-4.6122,-4.6168,-4.6186,-4.5963,-4.5962,-4.5961,-4.5961,0,-4.595,-4.5984,-4.603,-4.6035,-4.6049,-4.6099,-4.6061,-4.6082,-4.6049,-4.6029,-4.6084,-4.6074,-4.6091,-4.6106,-4.6074,-4.6172,-4.615,-4.6103,-4.6032,-4.615,-4.6192,-4.6209,-4.5972,-4.597,-4.5968,-4.5966,0,0,-4.6151,-4.6131,-4.6148,-4.6149,-4.6141,-4.6166,-4.6213,-4.623,-4.6248,-4.6253,-4.6291,-4.6329,-4.6286,-4.6293,-4.6261,-4.6299,-4.6408,-4.6247,-4.6246,-4.6277,-4.6515,-4.655,-4.6571,-4.6379,-4.6382,-4.6384,-4.6515,0,-4.6282,-4.636,-4.6321,-4.6404,-4.6435,-4.6371,-4.6412,-4.6411,-4.6394,-4.6418,-4.6399,-4.6427,-4.6368,-4.6372,-4.6407,-4.6388,-4.6456,-4.6378,-4.6413,-4.6415,-4.6414,-4.6593,-4.663,-4.6754,-4.6532,-4.6534,-4.6536,0,-4.6445,-4.6457,-4.6543,-4.6529,-4.6541,-4.6578,-4.659,-4.6614,-4.6612,-4.6597,-4.6606,-4.6565,-4.6609,-4.654,-4.6601,-4.6549,-4.6562,-4.6555,-4.6559,-4.6559,-4.6482,-4.6598,-4.6792,-4.6811,-4.6562,-4.656,-4.6558,0,-4.6582,-4.662,-4.6676,-4.6679,-4.6664,-4.6692,-4.6687,-4.6681,-4.6694,-4.6706,-4.6713,-4.673,-4.6739,-4.6753,-4.6718,-4.667,-4.6784,-4.6711,-4.6772,-4.6773,-4.6798,-4.6796,-4.6996,-4.6808,-4.6808,-4.6807,-4.6807,0,-4.6732,-4.6787,-4.6737,-4.6772,-4.6832,-4.6787,-4.6848,-4.6836,-4.6832,-4.6863,-4.6809,-4.684,-4.6792,-4.6818,-4.6791,-4.6846,-4.685,-4.6839,-4.6831,-4.6843,-4.6845,-4.685,-4.684,-4.6812,-4.6811,-4.681,-4.6809,0,-4.6894,-4.6863,-4.692,-4.6902,-4.6899,-4.6944,-4.6928,-4.6959,-4.6939,-4.6979,-4.6986,-4.6954,-4.6982,-4.6949,-4.6974,-4.6955,-4.7029,-4.7009,-4.703,-4.7024,-4.7086,-4.7081,-4.7295,-4.7321,-4.7118,-4.712,-4.7121,0,-4.6991,-4.7032,-4.7018,-4.7035,-4.7034,-4.7062,-4.7075,-4.7033,-4.7048,-4.705,-4.7081,-4.7104,-4.712,-4.7168,-4.7147,-4.7166,-4.7145,-4.7219,-4.7148,-4.7159,-4.7145,-4.7143,-4.7146,-4.7233,-4.7236,-4.7238,-4.724,0,-4.7166,-4.7149,-4.717,-4.7186,-4.7203,-4.7213,-4.7219,-4.7237,-4.7193,-4.7213,-4.7241,-4.7254,-4.7279,-4.7303,-4.7317,-4.7311,-4.7269,-4.7263,-4.7277,-4.729,-4.73,-4.7294,-4.7069,-4.7257,-4.7256,-4.7254,-4.7253,-4.7253,-4.7298,-4.7332,-4.7327,-4.7352,-4.7353,-4.736,-4.7388,-4.7372,-4.7394,-4.7412,-4.7386,-4.7421,-4.7418,-4.7431,-4.7432,-4.7458,-4.7426,-4.7448,-4.7453,-4.7459,-4.7468,-4.7297,-4.7461,-4.746,-4.746,-4.7459,-4.7459,0,-4.747,-4.7464,-4.7488,-4.7498,-4.7518,-4.7476,-4.7481,-4.7501,-4.7532,-4.7533,-4.7551,-4.7583,-4.7606,-4.7587,-4.7607,-4.7632,-4.7612,-4.7638,-4.7635,-4.7634,-4.7496,-4.7481,-4.7653,-4.7653,-4.7653,-4.7653,-4.7653,-4.7653,-4.7561,-4.7616,-4.7598,-4.7652,-4.7646,-4.768,-4.7686,-4.7693,-4.7693,-4.7732,-4.7751,-4.7738,-4.7732,-4.775,-4.777,-4.7764,-4.7773,-4.7805,-4.7793,-4.7663,-4.7644,-4.7626,-4.7611,-4.7808,-4.7808,-4.7928,-4.7929,-4.793]},{"header":{"parameterUnit":"m.s-1","parameterCategory":1,"la1":30.2991,"la2":30.254,"lo1":-89.0895,"lo2":-89.0444,"dy":0.0017,"dx":0.0017,"nx":28,"ny":28,"refTime":"2025-09-01T21:00:00:Z","depth":0,"parameterNumber":3,"parameterNumberName":"V-component_of_WINDS"},"data":[0,0,0,0,0,0,0,0,0,0,0,0,0,0,0,0,0,0,0,0,0,0,0,0,0,0,0,0,0,0,0,0,0,0,0,0,0,0,0,0,0,0,0,0,0,0,0,0,0,0,0,0,0,0,0,0,0,0,-0.8342,-0.8342,0,-0.8348,-0.8349,-0.8349,-0.8326,-0.8325,-0.8324,-0.8324,-0.8332,-0.8332,-0.8333,0,0,0,0,0,0,0,0,0,0,0,0,0,-0.831,-0.8311,-0.8342,-0.8342,-0.8342,-0.8348,-0.8349,-0.8349,-0.8326,-0.8325,-0.8324,-0.8323,-0.8331,-0.8332,-0.8333,0,0,0,0,0,0,0,0,0,0,0,0,0,-0.8321,-0.8311,-0.8342,-0.8331,-0.8331,-0.8348,-0.8349,-0.8349,-0.8326,-0.8325,-0.8324,-0.8323,-0.8331,-0.8332,-0.8333,-0.8362,0,0,-0.8337,-0.8338,0,0,0,0,0,0,0,0,-0.832,-0.8322,-0.8333,-0.8332,-0.8331,-0.8335,-0.834,-0.8353,-0.8326,-0.8328,-0.8324,-0.8322,-0.8334,-0.8335,-0.8338,-0.8363,-0.8363,-0.8337,-0.8338,-0.8339,-0.8339,0,0,0,0,0,0,0,-0.832,-0.8322,-0.8345,-0.8333,-0.8332,-0.8326,-0.8327,-0.8343,-0.8337,-0.8328,-0.8326,-0.8327,-0.8333,-0.8337,-0.8338,-0.8363,-0.8337,-0.8339,-0.8339,-0.834,-0.841,-0.8411,0,0,0,0,0,0,-0.832,-0.8321,-0.8344,-0.8345,-0.8323,-0.8328,-0.8328,-0.8335,-0.8336,-0.8335,-0.8328,-0.8326,-0.8335,-0.8337,-0.8338,-0.8371,-0.8339,-0.834,-0.8341,-0.8409,-0.841,-0.8411,0,0,0,0,0,0,-0.832,-0.8322,-0.8344,-0.8333,-0.8335,-0.833,-0.8337,-0.8336,-0.834,-0.8336,-0.8335,-0.8333,-0.8335,-0.8337,-0.8356,-0.8371,-0.8341,-0.8342,-0.8408,-0.8409,-0.8411,-0.8438,0,0,0,0,0,0,-0.8319,-0.8322,-0.8333,-0.8333,-0.8336,-0.8362,-0.8338,-0.8337,-0.8342,-0.8339,-0.8341,-0.834,-0.8334,-0.8354,-0.8357,-0.8373,-0.8343,-0.8406,-0.8408,-0.841,-0.8436,-0.8441,-0.8445,0,0,0,0,0,-0.8318,-0.8341,-0.8334,-0.8337,-0.8349,-0.8363,-0.8364,-0.8356,-0.8343,-0.8354,-0.8352,-0.834,-0.8369,-0.8356,-0.836,-0.8376,-0.8405,-0.8408,-0.841,-0.8434,-0.844,-0.8445,0,0,0,0,0,0,-0.8345,-0.8341,-0.8333,-0.8357,-0.836,-0.8359,-0.8372,-0.8363,-0.837,-0.8367,-0.8357,-0.8358,-0.8379,-0.8379,-0.8365,-0.8403,-0.8385,-0.8388,-0.8402,-0.8407,-0.8412,-0.8411,-0.8344,0,0,0,0,0,-0.8353,-0.8364,-0.8361,-0.8382,-0.8384,-0.8378,-0.8384,-0.8377,-0.838,-0.8381,-0.838,-0.8384,-0.8394,-0.8401,-0.8409,-0.8436,-0.8435,-0.8448,-0.8452,-0.8456,-0.8459,-0.8472,-0.8478,-0.8419,-0.8419,-0.8419,0,0,-0.8371,-0.8371,-0.8379,-0.8388,-0.8389,-0.8401,-0.8379,-0.8393,-0.8401,-0.8384,-0.8402,-0.8401,-0.8404,-0.8427,-0.8437,-0.8428,-0.8475,-0.8459,-0.8462,-0.8463,-0.8475,-0.8481,-0.8486,-0.8421,-0.8421,-0.8421,0,0,-0.841,-0.8411,-0.8429,-0.8431,-0.8433,-0.8428,-0.8433,-0.8432,-0.8431,-0.8449,-0.8435,-0.8445,-0.8462,-0.8465,-0.8468,-0.8507,-0.8496,-0.851,-0.8533,-0.8546,-0.855,-0.8554,-0.8568,-0.8573,-0.8513,-0.8513,-0.8513,0,-0.8433,-0.845,-0.8439,-0.8453,-0.8458,-0.8441,-0.8458,-0.8461,-0.8466,-0.8469,-0.8459,-0.8479,-0.8481,-0.8503,-0.8512,-0.8516,-0.852,-0.851,-0.855,-0.8554,-0.8558,-0.857,-0.8576,-0.8515,-0.8514,-0.8514,-0.8514,0,-0.8477,-0.8489,-0.8503,-0.8507,-0.8513,-0.8529,-0.8521,-0.8528,-0.852,-0.8517,-0.8535,-0.8535,-0.8543,-0.8548,-0.8541,-0.8569,-0.8564,-0.8552,-0.8534,-0.8565,-0.8577,-0.8582,-0.8517,-0.8516,-0.8516,-0.8515,0,0,-0.8534,-0.8532,-0.8537,-0.8539,-0.8539,-0.8548,-0.8563,-0.857,-0.8576,-0.858,-0.8592,-0.8606,-0.8595,-0.8599,-0.8592,-0.8603,-0.8633,-0.859,-0.859,-0.8598,-0.8664,-0.8672,-0.8678,-0.8626,-0.8627,-0.8627,-0.8663,0,-0.8572,-0.8597,-0.8588,-0.8613,-0.8623,-0.8607,-0.862,-0.8621,-0.8618,-0.8626,-0.8623,-0.8633,-0.8618,-0.862,-0.863,-0.8627,-0.8646,-0.8624,-0.8637,-0.8637,-0.8637,-0.8684,-0.8694,-0.8728,-0.8668,-0.8669,-0.8669,0,-0.8621,-0.8625,-0.8652,-0.8649,-0.8653,-0.8665,-0.867,-0.8678,-0.8679,-0.8676,-0.868,-0.867,-0.8684,-0.8666,-0.8685,-0.867,-0.8675,-0.8674,-0.8675,-0.8676,-0.8655,-0.8687,-0.8739,-0.8744,-0.8676,-0.8676,-0.8675,0,-0.8659,-0.8672,-0.8689,-0.8691,-0.8689,-0.8697,-0.8697,-0.8697,-0.8701,-0.8706,-0.8709,-0.8716,-0.8719,-0.8724,-0.8716,-0.8704,-0.8737,-0.8717,-0.8734,-0.8735,-0.8742,-0.8742,-0.8796,-0.8745,-0.8745,-0.8745,-0.8745,0,-0.8703,-0.872,-0.8707,-0.8717,-0.8735,-0.8724,-0.8742,-0.874,-0.874,-0.8749,-0.8735,-0.8745,-0.8734,-0.8742,-0.8736,-0.8753,-0.8755,-0.8752,-0.8751,-0.8754,-0.8754,-0.8757,-0.8754,-0.8746,-0.8746,-0.8746,-0.8746,0,-0.875,-0.8742,-0.8759,-0.8755,-0.8754,-0.8768,-0.8764,-0.8774,-0.8769,-0.8781,-0.8783,-0.8776,-0.8785,-0.8778,-0.8787,-0.8783,-0.8804,-0.8799,-0.8804,-0.8802,-0.882,-0.8818,-0.8877,-0.8884,-0.8829,-0.8829,-0.883,0,-0.8778,-0.879,-0.8787,-0.8792,-0.8792,-0.8801,-0.8805,-0.8794,-0.8799,-0.8801,-0.881,-0.8818,-0.8823,-0.8838,-0.8834,-0.8841,-0.8836,-0.8856,-0.8837,-0.8839,-0.8836,-0.8835,-0.8836,-0.886,-0.8861,-0.8861,-0.8862,0,-0.8829,-0.8824,-0.8831,-0.8835,-0.8841,-0.8844,-0.8846,-0.8851,-0.884,-0.8846,-0.8855,-0.8859,-0.8867,-0.8875,-0.888,-0.888,-0.8869,-0.8867,-0.8872,-0.8875,-0.8877,-0.8876,-0.8814,-0.8866,-0.8866,-0.8865,-0.8865,-0.8865,-0.8868,-0.8877,-0.8876,-0.8883,-0.8884,-0.8886,-0.8894,-0.889,-0.8897,-0.8902,-0.8895,-0.8906,-0.8906,-0.8911,-0.8912,-0.892,-0.8911,-0.8918,-0.8919,-0.8921,-0.8923,-0.8876,-0.8921,-0.8921,-0.892,-0.892,-0.892,0,-0.8918,-0.8916,-0.8923,-0.8926,-0.8931,-0.8919,-0.8921,-0.8926,-0.8936,-0.8936,-0.8941,-0.8951,-0.8958,-0.8954,-0.896,-0.8967,-0.8962,-0.8969,-0.8968,-0.8968,-0.8931,-0.8926,-0.8973,-0.8973,-0.8973,-0.8973,-0.8973,-0.8973,-0.8945,-0.896,-0.8955,-0.897,-0.8968,-0.8978,-0.8979,-0.8981,-0.8981,-0.8992,-0.8998,-0.8995,-0.8993,-0.8999,-0.9004,-0.9003,-0.9006,-0.9015,-0.9011,-0.8976,-0.8971,-0.8966,-0.8962,-0.9015,-0.9015,-0.9048,-0.9049,-0.9049]}]]